Location: *
(51.8167°N, 12.5000°E)
Time: 10:52:25
(UTC+00:00)

Meteor 1-15 Rocket - Pass Details

Date: 16 September 2019
Orbit: 840 x 907 km, 81.2° (Epoch: 14 October)

Event Time Altitude Azimuth Distance (km) Brightness Sun altitude
Rises 19:14:03 0° 185° (S) 3,445 7.1 -17.2°
Reaches altitude 10° 19:16:27 10° 184° (S) 2,521 6.4 -17.5°
Maximum altitude 19:22:11 76° 100° (E) 919 4.2 -18.3°
Drops below altitude 10° 19:28:03 10° 15° (NNE) 2,582 6.9 -19.1°
Sets 19:30:33 0° 14° (NNE) 3,534 7.7 -19.4°
